| time (UTC) | temp F | wind direction | speed knots | gust knots | rain 1hr in | rain 24hr in | rain mn in | humidity % | barometer mb |
| 20260901204509 | 66 | 270 | 7.8 | 0.0 | 0.00 | 0.00 | 0.00 | 66 | 1012.9 |
| 20260901203009 | 66 | 270 | 7.0 | 0.0 | 0.00 | 0.00 | 0.00 | 66 | 1012.9 |
| 20260901201510 | 67 | 270 | 7.0 | 0.0 | 0.00 | 0.00 | 0.00 | 63 | 1012.7 |
| 20260901200010 | 67 | 270 | 8.7 | 0.0 | 0.00 | 0.00 | 0.00 | 63 | 1012.7 |
| 20260901194509 | 69 | 270 | 9.6 | 0.0 | 0.00 | 0.00 | 0.00 | 57 | 1012.5 |
| 20260901193009 | 69 | 270 | 9.6 | 0.0 | 0.00 | 0.00 | 0.00 | 57 | 1012.5 |
| 20260901191509 | 69 | 270 | 9.6 | 0.0 | 0.00 | 0.00 | 0.00 | 56 | 1012.2 |
| 20260901190010 | 69 | 270 | 8.7 | 0.0 | 0.00 | 0.00 | 0.00 | 56 | 1012.2 |
| 20260901184509 | 70 | 270 | 8.7 | 0.0 | 0.00 | 0.00 | 0.00 | 55 | 1011.8 |
| 20260901183009 | 70 | 270 | 7.0 | 0.0 | 0.00 | 0.00 | 0.00 | 55 | 1011.8 |
| 20260901181509 | 71 | 270 | 7.0 | 0.0 | 0.00 | 0.00 | 0.00 | 54 | 1011.6 |
| 20260901180010 | 71 | 270 | 6.1 | 0.0 | 0.00 | 0.00 | 0.00 | 54 | 1011.6 |
| 20260901174509 | 71 | 270 | 6.1 | 0.0 | 0.00 | 0.00 | 0.00 | 51 | 1011.4 |
| 20260901173009 | 71 | 270 | 7.8 | 0.0 | 0.00 | 0.00 | 0.00 | 51 | 1011.4 |
| 20260901171509 | 72 | 270 | 7.8 | 0.0 | 0.00 | 0.00 | 0.00 | 48 | 1011.4 |
| 20260901170009 | 72 | 280 | 11.3 | 0.0 | 0.00 | 0.00 | 0.00 | 48 | 1011.4 |
| 20260901164510 | 73 | 280 | 11.3 | 0.0 | 0.00 | 0.00 | 0.00 | 46 | 1011.4 |
| 20260901163009 | 73 | 280 | 10.4 | 0.0 | 0.00 | 0.00 | 0.00 | 46 | 1011.4 |
| 20260901161509 | 74 | 280 | 10.4 | 0.0 | 0.00 | 0.00 | 0.00 | 45 | 1011.3 |
| 20260901160009 | 74 | 280 | 10.4 | 0.0 | 0.00 | 0.00 | 0.00 | 45 | 1011.3 |
| 20260901154509 | 74 | 270 | 9.6 | 0.0 | 0.00 | 0.00 | 0.00 | 49 | 1011.3 |
| 20260901153009 | 74 | 270 | 9.6 | 0.0 | 0.00 | 0.00 | 0.00 | 49 | 1011.3 |
| 20260901151510 | 73 | 270 | 9.6 | 0.0 | 0.00 | 0.00 | 0.00 | 48 | 1011.2 |
| 20260901150009 | 73 | 270 | 10.4 | 0.0 | 0.00 | 0.00 | 0.00 | 48 | 1011.2 |
| 20260901144509 | 74 | 270 | 10.4 | 0.0 | 0.00 | 0.00 | 0.00 | 51 | 1011.3 |
| 20260901143010 | 74 | 270 | 10.4 | 0.0 | 0.00 | 0.00 | 0.00 | 51 | 1011.3 |
| 20260901141509 | 74 | 260 | 8.7 | 0.0 | 0.00 | 0.00 | 0.00 | 50 | 1011.5 |
| 20260901140009 | 74 | 260 | 8.7 | 0.0 | 0.00 | 0.00 | 0.00 | 50 | 1011.5 |
| 20260901134509 | 71 | 260 | 8.7 | 0.0 | 0.00 | 0.00 | 0.00 | 53 | 1011.5 |
| 20260901133009 | 71 | 260 | 10.4 | 0.0 | 0.00 | 0.00 | 0.00 | 53 | 1011.5 |
| 20260901131510 | 71 | 250 | 10.4 | 0.0 | 0.00 | 0.00 | 0.00 | 54 | 1011.6 |
| 20260901130009 | 71 | 250 | 10.4 | 0.0 | 0.00 | 0.00 | 0.00 | 54 | 1011.6 |
| 20260901124509 | 71 | 250 | 10.4 | 0.0 | 0.00 | 0.00 | 0.00 | 56 | 1011.7 |
| 20260901123010 | 71 | 270 | 10.4 | 0.0 | 0.00 | 0.00 | 0.00 | 56 | 1011.7 |
| 20260901121509 | 71 | 270 | 11.3 | 0.0 | 0.00 | 0.00 | 0.00 | 55 | 1011.7 |
| 20260901120009 | 71 | 270 | 11.3 | 0.0 | 0.00 | 0.00 | 0.00 | 55 | 1011.7 |
| 20260901114509 | 70 | 270 | 11.3 | 0.0 | 0.00 | 0.00 | 0.00 | 56 | 1011.7 |
| 20260901113009 | 70 | 280 | 9.6 | 0.0 | 0.00 | 0.00 | 0.00 | 56 | 1011.7 |
| 20260901111509 | 69 | 280 | 9.6 | 0.0 | 0.00 | 0.00 | 0.00 | 60 | 1011.8 |
| 20260901110010 | 69 | 270 | 10.4 | 0.0 | 0.00 | 0.00 | 0.00 | 60 | 1011.8 |
| 20260901104509 | 69 | 270 | 10.4 | 0.0 | 0.00 | 0.00 | 0.00 | 63 | 1011.6 |
| 20260901103010 | 69 | 260 | 7.8 | 0.0 | 0.00 | 0.00 | 0.00 | 63 | 1011.6 |
| 20260901101510 | 65 | 270 | 7.8 | 0.0 | 0.00 | 0.00 | 0.00 | 70 | 1011.5 |
| 20260901100010 | 65 | 270 | 7.8 | 0.0 | 0.00 | 0.00 | 0.00 | 70 | 1011.5 |
| 20260901094509 | 65 | 270 | 7.8 | 0.0 | 0.00 | 0.00 | 0.00 | 73 | 1011.3 |
| 20260901093010 | 65 | 250 | 7.8 | 0.0 | 0.00 | 0.00 | 0.00 | 73 | 1011.3 |
| 20260901091509 | 64 | 250 | 7.8 | 0.0 | 0.00 | 0.00 | 0.00 | 77 | 1011.1 |
| 20260901090009 | 64 | 270 | 9.6 | 0.0 | 0.00 | 0.00 | 0.00 | 77 | 1011.1 |
| 20260901084510 | 62 | 260 | 6.1 | 0.0 | 0.00 | 0.00 | 0.00 | 80 | 1010.8 |
| 20260901083009 | 62 | 260 | 6.1 | 0.0 | 0.00 | 0.00 | 0.00 | 80 | 1010.8 |
| 20260901081509 | 62 | 260 | 6.1 | 0.0 | 0.00 | 0.00 | 0.00 | 81 | 1010.7 |
| 20260901080009 | 62 | 240 | 7.0 | 0.0 | 0.00 | 0.00 | 0.00 | 81 | 1010.7 |
| 20260901074509 | 61 | 240 | 7.0 | 0.0 | 0.00 | 0.00 | 0.00 | 83 | 1010.4 |
| 20260901073009 | 61 | 250 | 6.1 | 0.0 | 0.00 | 0.00 | 0.00 | 83 | 1010.4 |
| 20260901071509 | 61 | 250 | 6.1 | 0.0 | 0.00 | 0.00 | 0.00 | 83 | 1010.1 |
| 20260901070010 | 61 | 250 | 7.8 | 0.0 | 0.00 | 0.00 | 0.00 | 83 | 1010.1 |
| 20260901064509 | 61 | 250 | 7.8 | 0.0 | 0.00 | 0.00 | 0.00 | 84 | 1009.8 |
| 20260901063009 | 61 | 260 | 7.0 | 0.0 | 0.00 | 0.00 | 0.00 | 84 | 1009.8 |
| 20260901061510 | 60 | 260 | 7.0 | 0.0 | 0.00 | 0.00 | 0.00 | 86 | 1009.6 |
| 20260901060010 | 60 | 250 | 6.1 | 0.0 | 0.00 | 0.00 | 0.00 | 86 | 1009.6 |
| 20260901054509 | 60 | 260 | 5.2 | 0.0 | 0.00 | 0.00 | 0.00 | 89 | 1009.2 |
| 20260901053010 | 60 | 260 | 5.2 | 0.0 | 0.00 | 0.00 | 0.00 | 89 | 1009.2 |
| 20260901051509 | 59 | 260 | 6.1 | 0.0 | 0.00 | 0.00 | 0.00 | 89 | 1008.9 |
| 20260901050010 | 59 | 260 | 6.1 | 0.0 | 0.00 | 0.00 | 0.00 | 89 | 1008.9 |
| 20260901044511 | 59 | 240 | 5.2 | 0.0 | 0.00 | 0.00 | 0.00 | 91 | 1008.6 |
| 20260901043009 | 59 | 240 | 5.2 | 0.0 | 0.00 | 0.00 | 0.00 | 91 | 1008.6 |
| 20260901041510 | 59 | 250 | 5.2 | 0.0 | 0.00 | 0.00 | 0.00 | 90 | 1008.4 |
| 20260901040010 | 59 | 250 | 5.2 | 0.0 | 0.00 | 0.00 | 0.00 | 90 | 1008.4 |
| 20260901034510 | 59 | 230 | 6.1 | 0.0 | 0.00 | 0.00 | 0.00 | 90 | 1008.3 |
| 20260901033010 | 59 | 230 | 6.1 | 0.0 | 0.00 | 0.00 | 0.00 | 90 | 1008.3 |
| 20260901031509 | 59 | 230 | 7.0 | 0.0 | 0.00 | 0.00 | 0.00 | 90 | 1008.1 |
| 20260901030008 | 59 | 230 | 7.0 | 0.0 | 0.00 | 0.00 | 0.00 | 90 | 1008.1 |